Time,TemperatureF,DewpointF,PressureIn,WindDirection,WindDirectionDegrees,WindSpeedMPH,WindSpeedGustMPH,Humidity,HourlyPrecipIn,Conditions,Clouds,dailyrainin,SoftwareType,DateUTC
2013-02-26 00:00:00,32.2,24.8,29.97,ENE,67,2.2,2.2,74,0.00,,,0.00,WUHU21623XXSP,2013-02-26 05:00:00,
2013-02-26 00:05:00,32.2,24.8,29.97,East,90,0.0,2.2,74,0.00,,,0.00,WUHU21623XXSP,2013-02-26 05:05:00,
2013-02-26 00:10:00,31.8,24.5,29.97,East,90,0.0,2.2,74,0.00,,,0.00,WUHU21623XXSP,2013-02-26 05:10:00,
2013-02-26 00:15:00,31.8,24.5,29.97,East,90,0.0,0.0,74,0.00,,,0.00,WUHU21623XXSP,2013-02-26 05:15:00,
2013-02-26 00:20:00,31.8,24.5,29.96,ESE,112,0.0,0.0,74,0.00,,,0.00,WUHU21623XXSP,2013-02-26 05:20:00,
2013-02-26 00:25:00,31.6,24.3,29.96,ESE,112,0.0,0.0,74,0.00,,,0.00,WUHU21623XXSP,2013-02-26 05:25:00,
2013-02-26 00:30:00,31.6,24.3,29.96,ESE,112,0.0,0.0,74,0.00,,,0.00,WUHU21623XXSP,2013-02-26 05:30:00,
2013-02-26 00:35:00,31.6,24.3,29.96,ESE,112,0.0,0.0,74,0.00,,,0.00,WUHU21623XXSP,2013-02-26 05:35:00,
2013-02-26 00:40:00,31.6,24.3,29.96,ESE,112,0.0,0.0,74,0.00,,,0.00,WUHU21623XXSP,2013-02-26 05:40:00,
2013-02-26 00:45:00,31.6,24.3,29.96,ENE,67,5.6,5.6,74,0.00,,,0.00,WUHU21623XXSP,2013-02-26 05:45:00,
2013-02-26 00:50:00,31.6,24.3,29.95,ENE,67,5.6,5.6,74,0.00,,,0.00,WUHU21623XXSP,2013-02-26 05:50:00,
2013-02-26 00:55:00,31.5,24.1,29.95,ENE,67,2.0,5.6,74,0.00,,,0.00,WUHU21623XXSP,2013-02-26 05:55:00,
2013-02-26 01:00:00,31.5,24.1,29.95,ENE,67,2.0,5.6,74,0.00,,,0.00,WUHU21623XXSP,2013-02-26 06:00:00,
2013-02-26 01:05:00,31.3,23.9,29.95,ENE,67,0.4,2.0,74,0.00,,,0.00,WUHU21623XXSP,2013-02-26 06:05:00,
2013-02-26 01:10:00,31.3,23.9,29.95,ENE,67,0.4,2.0,74,0.00,,,0.00,WUHU21623XXSP,2013-02-26 06:10:00,
2013-02-26 01:15:00,31.3,23.9,29.95,ENE,67,0.4,0.4,74,0.00,,,0.00,WUHU21623XXSP,2013-02-26 06:15:00,
2013-02-26 01:20:00,31.3,23.9,29.95,ENE,67,0.4,0.4,74,0.00,,,0.00,WUHU21623XXSP,2013-02-26 06:20:00,
2013-02-26 01:25:00,31.1,23.8,29.95,East,90,0.0,1.1,74,0.00,,,0.00,WUHU21623XXSP,2013-02-26 06:25:00,
2013-02-26 01:30:00,31.1,23.8,29.95,ENE,67,3.8,3.8,74,0.00,,,0.00,WUHU21623XXSP,2013-02-26 06:30:00,
2013-02-26 01:35:00,30.9,23.6,29.94,East,90,0.0,6.3,74,0.00,,,0.00,WUHU21623XXSP,2013-02-26 06:35:00,
2013-02-26 01:40:00,30.9,23.6,29.94,ENE,67,0.9,6.3,74,0.00,,,0.00,WUHU21623XXSP,2013-02-26 06:40:00,
2013-02-26 01:45:00,30.9,23.6,29.93,ENE,67,0.9,0.9,74,0.00,,,0.00,WUHU21623XXSP,2013-02-26 06:45:00,
2013-02-26 01:50:00,30.7,23.7,29.93,ENE,67,4.0,4.0,75,0.00,,,0.00,WUHU21623XXSP,2013-02-26 06:50:00,
2013-02-26 01:55:00,30.7,23.7,29.93,East,90,4.5,4.5,75,0.00,,,0.00,WUHU21623XXSP,2013-02-26 06:55:00,
2013-02-26 02:00:00,30.7,23.7,29.93,East,90,4.5,4.5,75,0.00,,,0.00,WUHU21623XXSP,2013-02-26 07:00:00,
2013-02-26 02:05:00,30.7,23.7,29.93,ENE,67,2.5,4.5,75,0.00,,,0.00,WUHU21623XXSP,2013-02-26 07:05:00,
2013-02-26 02:10:00,30.7,23.7,29.92,ENE,67,2.5,2.5,75,0.00,,,0.00,WUHU21623XXSP,2013-02-26 07:10:00,
2013-02-26 02:15:00,30.7,23.7,29.92,ENE,67,2.5,2.5,75,0.00,,,0.00,WUHU21623XXSP,2013-02-26 07:15:00,
2013-02-26 02:20:00,30.7,23.7,29.92,ENE,67,2.5,2.5,75,0.00,,,0.00,WUHU21623XXSP,2013-02-26 07:20:00,
2013-02-26 02:25:00,30.7,23.7,29.92,ENE,67,2.5,2.5,75,0.00,,,0.00,WUHU21623XXSP,2013-02-26 07:25:00,
2013-02-26 02:30:00,30.7,23.7,29.92,ENE,67,2.5,2.5,75,0.00,,,0.00,WUHU21623XXSP,2013-02-26 07:30:00,
2013-02-26 02:35:00,30.7,23.7,29.92,ENE,67,3.4,3.4,75,0.00,,,0.00,WUHU21623XXSP,2013-02-26 07:35:00,
2013-02-26 02:40:00,30.7,23.7,29.91,ENE,67,3.4,3.4,75,0.00,,,0.00,WUHU21623XXSP,2013-02-26 07:40:00,
2013-02-26 02:45:00,30.7,23.7,29.90,ENE,67,3.4,3.4,75,0.00,,,0.00,WUHU21623XXSP,2013-02-26 07:45:00,
2013-02-26 02:50:00,30.7,23.7,29.89,ESE,112,3.1,3.4,75,0.00,,,0.00,WUHU21623XXSP,2013-02-26 07:50:00,
2013-02-26 02:55:00,30.7,23.7,29.88,ESE,112,3.1,3.4,75,0.00,,,0.00,WUHU21623XXSP,2013-02-26 07:55:00,
2013-02-26 03:00:00,30.9,23.9,29.88,East,90,0.0,3.1,75,0.00,,,0.00,WUHU21623XXSP,2013-02-26 08:00:00,
2013-02-26 03:05:00,30.9,23.9,29.88,East,90,0.0,3.1,75,0.00,,,0.00,WUHU21623XXSP,2013-02-26 08:05:00,
2013-02-26 03:10:00,30.9,23.9,29.88,ENE,67,6.7,6.7,75,0.00,,,0.00,WUHU21623XXSP,2013-02-26 08:10:00,
2013-02-26 03:15:00,31.1,24.1,29.87,ENE,67,6.7,6.7,75,0.00,,,0.00,WUHU21623XXSP,2013-02-26 08:15:00,
2013-02-26 03:20:00,31.1,24.1,29.87,ESE,112,0.0,6.7,75,0.00,,,0.00,WUHU21623XXSP,2013-02-26 08:20:00,
2013-02-26 03:25:00,31.1,24.1,29.85,ESE,112,0.0,6.7,75,0.00,,,0.00,WUHU21623XXSP,2013-02-26 08:25:00,
2013-02-26 03:30:00,31.1,24.1,29.85,ESE,112,0.0,0.0,75,0.00,,,0.00,WUHU21623XXSP,2013-02-26 08:30:00,
2013-02-26 03:35:00,31.1,24.1,29.85,East,90,0.0,0.0,75,0.00,,,0.00,WUHU21623XXSP,2013-02-26 08:35:00,
2013-02-26 03:40:00,31.1,24.1,29.86,ENE,67,3.6,3.6,75,0.00,,,0.00,WUHU21623XXSP,2013-02-26 08:40:00,
2013-02-26 03:45:00,31.1,24.1,29.85,East,90,0.0,3.6,75,0.00,,,0.00,WUHU21623XXSP,2013-02-26 08:45:00,
2013-02-26 03:50:00,31.1,24.1,29.85,ENE,67,4.0,4.0,75,0.00,,,0.00,WUHU21623XXSP,2013-02-26 08:50:00,
2013-02-26 03:55:00,31.1,24.1,29.85,ENE,67,1.6,4.0,75,0.00,,,0.00,WUHU21623XXSP,2013-02-26 08:55:00,
2013-02-26 04:00:00,31.1,24.1,29.85,ENE,67,1.6,1.6,75,0.00,,,0.00,WUHU21623XXSP,2013-02-26 09:00:00,
2013-02-26 04:05:00,31.1,24.1,29.85,ENE,67,1.6,1.6,75,0.00,,,0.00,WUHU21623XXSP,2013-02-26 09:05:00,
2013-02-26 04:10:00,31.3,24.3,29.84,ENE,67,1.6,1.6,75,0.00,,,0.00,WUHU21623XXSP,2013-02-26 09:10:00,
2013-02-26 04:15:00,31.3,24.3,29.83,ENE,67,7.0,7.4,75,0.00,,,0.00,WUHU21623XXSP,2013-02-26 09:15:00,
2013-02-26 04:20:00,31.3,24.3,29.83,ENE,67,6.9,7.4,75,0.00,,,0.00,WUHU21623XXSP,2013-02-26 09:20:00,
2013-02-26 04:25:00,31.3,24.3,29.82,ENE,67,6.9,6.9,75,0.00,,,0.00,WUHU21623XXSP,2013-02-26 09:25:00,
2013-02-26 04:30:00,31.3,23.9,29.82,ENE,67,3.2,6.9,74,0.00,,,0.00,WUHU21623XXSP,2013-02-26 09:30:00,
2013-02-26 04:35:00,31.3,23.9,29.82,ENE,67,0.4,6.9,74,0.00,,,0.00,WUHU21623XXSP,2013-02-26 09:35:00,
2013-02-26 04:40:00,31.6,24.3,29.83,East,90,4.5,4.5,74,0.00,,,0.00,WUHU21623XXSP,2013-02-26 09:40:00,
2013-02-26 04:45:00,31.6,24.3,29.83,East,90,4.5,4.5,74,0.00,,,0.00,WUHU21623XXSP,2013-02-26 09:45:00,
2013-02-26 04:50:00,31.6,24.3,29.82,ENE,67,7.4,7.4,74,0.00,,,0.00,WUHU21623XXSP,2013-02-26 09:50:00,
2013-02-26 04:55:00,31.8,24.5,29.81,ENE,67,2.0,7.4,74,0.00,,,0.00,WUHU21623XXSP,2013-02-26 09:55:00,
2013-02-26 05:00:00,31.8,24.5,29.80,ENE,67,2.0,2.0,74,0.00,,,0.00,WUHU21623XXSP,2013-02-26 10:00:00,
2013-02-26 05:05:00,31.8,24.5,29.80,ENE,67,2.0,2.0,74,0.00,,,0.00,WUHU21623XXSP,2013-02-26 10:05:00,
2013-02-26 05:10:00,31.8,24.5,29.80,ENE,67,2.0,2.0,74,0.00,,,0.00,WUHU21623XXSP,2013-02-26 10:10:00,
2013-02-26 05:15:00,31.8,24.5,29.78,ENE,67,2.0,2.0,74,0.00,,,0.00,WUHU21623XXSP,2013-02-26 10:15:00,
2013-02-26 05:20:00,31.8,24.5,29.78,ENE,67,2.0,2.0,74,0.00,,,0.00,WUHU21623XXSP,2013-02-26 10:20:00,
2013-02-26 05:25:00,31.8,24.5,29.77,ESE,112,4.3,4.3,74,0.00,,,0.00,WUHU21623XXSP,2013-02-26 10:25:00,
2013-02-26 05:30:00,32.2,24.8,29.77,ENE,67,8.7,8.7,74,0.00,,,0.00,WUHU21623XXSP,2013-02-26 10:30:00,
2013-02-26 05:35:00,32.2,24.8,29.76,ENE,67,8.7,8.7,74,0.00,,,0.00,WUHU21623XXSP,2013-02-26 10:35:00,
2013-02-26 05:40:00,32.2,24.8,29.76,East,87,8.5,8.7,74,0.00,,,0.00,WUHU21623XXSP,2013-02-26 10:40:00,
2013-02-26 05:45:00,32.4,25.0,29.74,ENE,67,7.2,8.7,74,0.00,,,0.00,WUHU21623XXSP,2013-02-26 10:45:00,
2013-02-26 05:50:00,32.4,24.7,29.74,NE,45,5.8,8.3,73,0.00,,,0.00,WUHU21623XXSP,2013-02-26 10:50:00,
2013-02-26 05:55:00,32.4,24.7,29.75,NE,45,8.9,8.9,73,0.00,,,0.00,WUHU21623XXSP,2013-02-26 10:55:00,
2013-02-26 06:00:00,32.4,24.7,29.75,ESE,112,6.9,8.9,73,0.00,,,0.00,WUHU21623XXSP,2013-02-26 11:00:00,
2013-02-26 06:05:00,32.2,24.5,29.73,ESE,112,6.9,8.9,73,0.00,,,0.00,WUHU21623XXSP,2013-02-26 11:05:00,
2013-02-26 06:10:00,32.2,24.5,29.74,ESE,112,6.9,6.9,73,0.00,,,0.00,WUHU21623XXSP,2013-02-26 11:10:00,
2013-02-26 06:15:00,32.2,24.5,29.74,ENE,67,3.4,6.9,73,0.00,,,0.00,WUHU21623XXSP,2013-02-26 11:15:00,
2013-02-26 06:20:00,32.2,24.5,29.74,SE,135,4.9,6.9,73,0.00,,,0.00,WUHU21623XXSP,2013-02-26 11:20:00,
2013-02-26 06:25:00,32.2,24.5,29.72,ENE,67,8.1,9.8,73,0.00,,,0.00,WUHU21623XXSP,2013-02-26 11:25:00,
2013-02-26 06:30:00,32.2,24.5,29.74,ENE,67,12.8,12.8,73,0.00,,,0.00,WUHU21623XXSP,2013-02-26 11:30:00,
2013-02-26 06:35:00,32.2,24.5,29.74,ENE,67,4.7,12.8,73,0.00,,,0.00,WUHU21623XXSP,2013-02-26 11:35:00,
2013-02-26 06:40:00,32.2,24.5,29.74,ENE,67,4.7,12.8,73,0.00,,,0.00,WUHU21623XXSP,2013-02-26 11:40:00,
2013-02-26 06:45:00,32.2,24.5,29.75,ENE,67,4.7,4.7,73,0.00,,,0.00,WUHU21623XXSP,2013-02-26 11:45:00,
2013-02-26 06:50:00,32.2,24.5,29.75,ENE,67,4.7,4.7,73,0.00,,,0.00,WUHU21623XXSP,2013-02-26 11:50:00,
2013-02-26 06:55:00,32.4,24.3,29.76,ENE,67,2.5,4.7,72,0.00,,,0.00,WUHU21623XXSP,2013-02-26 11:55:00,
2013-02-26 07:00:00,32.4,24.3,29.77,ENE,67,2.5,4.7,72,0.00,,,0.00,WUHU21623XXSP,2013-02-26 12:00:00,
2013-02-26 07:05:00,32.4,24.3,29.78,ENE,67,2.5,2.5,72,0.00,,,0.00,WUHU21623XXSP,2013-02-26 12:05:00,
2013-02-26 07:10:00,32.4,24.3,29.78,ENE,67,5.6,5.6,72,0.00,,,0.00,WUHU21623XXSP,2013-02-26 12:10:00,
2013-02-26 07:15:00,32.4,24.3,29.78,ENE,67,5.6,5.6,72,0.00,,,0.00,WUHU21623XXSP,2013-02-26 12:15:00,
2013-02-26 07:20:00,32.2,24.5,29.79,ENE,67,5.6,5.6,73,0.00,,,0.00,WUHU21623XXSP,2013-02-26 12:20:00,
2013-02-26 07:25:00,32.2,24.5,29.79,ENE,74,1.9,5.6,73,0.00,,,0.00,WUHU21623XXSP,2013-02-26 12:25:00,
2013-02-26 07:30:00,32.2,24.5,29.79,ENE,67,2.5,2.5,73,0.00,,,0.00,WUHU21623XXSP,2013-02-26 12:30:00,
2013-02-26 07:35:00,32.2,24.5,29.77,ENE,67,1.3,2.5,73,0.00,,,0.00,WUHU21623XXSP,2013-02-26 12:35:00,
2013-02-26 07:40:00,32.2,24.5,29.76,ENE,67,7.2,7.2,73,0.00,,,0.00,WUHU21623XXSP,2013-02-26 12:40:00,
2013-02-26 07:45:00,32.2,24.5,29.75,ENE,67,7.2,7.2,73,0.00,,,0.00,WUHU21623XXSP,2013-02-26 12:45:00,
2013-02-26 07:50:00,32.2,24.5,29.75,ENE,67,3.4,7.2,73,0.00,,,0.00,WUHU21623XXSP,2013-02-26 12:50:00,
2013-02-26 07:55:00,32.0,24.7,29.74,ENE,61,3.6,7.4,74,0.00,,,0.00,WUHU21623XXSP,2013-02-26 12:55:00,
2013-02-26 08:00:00,31.8,24.5,29.73,ENE,67,5.6,7.4,74,0.00,,,0.00,WUHU21623XXSP,2013-02-26 13:00:00,
2013-02-26 08:05:00,31.8,24.8,29.73,ENE,67,4.9,10.5,75,0.00,,,0.00,WUHU21623XXSP,2013-02-26 13:05:00,
2013-02-26 08:10:00,31.6,24.6,29.73,ENE,67,4.7,10.5,75,0.00,,,0.00,WUHU21623XXSP,2013-02-26 13:10:00,
2013-02-26 08:15:00,31.6,24.6,29.72,ENE,61,3.5,4.7,75,0.00,,,0.00,WUHU21623XXSP,2013-02-26 13:15:00,
2013-02-26 08:20:00,31.3,24.6,29.73,ESE,112,3.1,4.7,76,0.00,,,0.00,WUHU21623XXSP,2013-02-26 13:20:00,
2013-02-26 08:25:00,31.3,24.6,29.72,ESE,112,5.4,5.4,76,0.00,,,0.00,WUHU21623XXSP,2013-02-26 13:25:00,
2013-02-26 08:30:00,31.3,24.9,29.72,ENE,67,4.7,5.4,77,0.00,,,0.00,WUHU21623XXSP,2013-02-26 13:30:00,
2013-02-26 08:35:00,31.3,24.9,29.71,ENE,67,2.7,5.4,77,0.00,,,0.00,WUHU21623XXSP,2013-02-26 13:35:00,
2013-02-26 08:40:00,31.1,25.1,29.71,ENE,67,6.0,6.0,78,0.00,,,0.00,WUHU21623XXSP,2013-02-26 13:40:00,
2013-02-26 08:45:00,31.1,25.1,29.71,ENE,62,2.6,6.0,78,0.00,,,0.00,WUHU21623XXSP,2013-02-26 13:45:00,
2013-02-26 08:50:00,31.1,25.1,29.70,ENE,67,4.3,6.3,78,0.00,,,0.00,WUHU21623XXSP,2013-02-26 13:50:00,
2013-02-26 08:55:00,31.1,25.4,29.71,ENE,67,2.9,6.3,79,0.00,,,0.00,WUHU21623XXSP,2013-02-26 13:55:00,
2013-02-26 09:00:00,31.1,25.4,29.71,ESE,112,1.3,4.3,79,0.00,,,0.00,WUHU21623XXSP,2013-02-26 14:00:00,
2013-02-26 09:05:00,31.3,25.6,29.71,ESE,112,0.0,2.9,79,0.00,,,0.00,WUHU21623XXSP,2013-02-26 14:05:00,
2013-02-26 09:10:00,31.1,25.7,29.70,SE,135,0.0,0.7,80,0.00,,,0.00,WUHU21623XXSP,2013-02-26 14:10:00,
2013-02-26 09:15:00,31.1,25.7,29.69,ENE,67,3.4,3.4,80,0.00,,,0.00,WUHU21623XXSP,2013-02-26 14:15:00,
2013-02-26 09:20:00,31.3,25.9,29.68,ENE,67,7.2,7.2,80,0.00,,,0.00,WUHU21623XXSP,2013-02-26 14:20:00,
2013-02-26 09:25:00,31.1,25.7,29.67,ESE,112,5.4,7.2,80,0.00,,,0.00,WUHU21623XXSP,2013-02-26 14:25:00,
2013-02-26 09:30:00,31.1,25.7,29.66,ESE,112,5.4,7.2,80,0.00,,,0.00,WUHU21623XXSP,2013-02-26 14:30:00,
2013-02-26 09:35:00,31.3,26.2,29.65,NE,45,2.2,5.4,81,0.00,,,0.00,WUHU21623XXSP,2013-02-26 14:35:00,
2013-02-26 09:40:00,31.3,26.2,29.65,ENE,67,5.3,5.4,81,0.00,,,0.00,WUHU21623XXSP,2013-02-26 14:40:00,
2013-02-26 09:45:00,31.3,26.2,29.65,SE,146,2.6,5.4,81,0.00,,,0.00,WUHU21623XXSP,2013-02-26 14:45:00,
2013-02-26 09:50:00,31.3,26.2,29.64,East,90,6.9,6.9,81,0.00,,,0.00,WUHU21623XXSP,2013-02-26 14:50:00,
2013-02-26 09:55:00,31.3,26.2,29.64,ENE,67,5.1,6.9,81,0.00,,,0.00,WUHU21623XXSP,2013-02-26 14:55:00,
2013-02-26 10:00:00,31.3,26.5,29.63,ENE,67,4.9,6.9,82,0.00,,,0.00,WUHU21623XXSP,2013-02-26 15:00:00,
2013-02-26 10:05:00,31.3,26.5,29.61,ENE,67,4.9,5.1,82,0.00,,,0.00,WUHU21623XXSP,2013-02-26 15:05:00,
2013-02-26 10:10:00,31.3,26.5,29.62,ENE,67,3.6,4.9,82,0.00,,,0.00,WUHU21623XXSP,2013-02-26 15:10:00,
2013-02-26 10:15:00,31.3,26.5,29.62,ENE,67,6.9,6.9,82,0.00,,,0.00,WUHU21623XXSP,2013-02-26 15:15:00,
2013-02-26 10:20:00,31.3,26.5,29.61,ENE,67,6.8,6.9,82,0.00,,,0.00,WUHU21623XXSP,2013-02-26 15:20:00,
2013-02-26 10:25:00,31.3,26.5,29.60,ENE,67,6.3,6.9,82,0.00,,,0.00,WUHU21623XXSP,2013-02-26 15:25:00,
2013-02-26 10:30:00,31.3,26.5,29.59,ENE,67,21.7,21.7,82,0.00,,,0.00,WUHU21623XXSP,2013-02-26 15:30:00,
2013-02-26 10:35:00,31.6,27.1,29.59,ENE,67,21.7,21.7,83,0.00,,,0.00,WUHU21623XXSP,2013-02-26 15:35:00,
2013-02-26 10:40:00,31.6,27.1,29.59,SSE,157,1.8,21.7,83,0.00,,,0.00,WUHU21623XXSP,2013-02-26 15:40:00,
2013-02-26 10:45:00,31.6,27.1,29.59,SSE,157,1.8,21.7,83,0.00,,,0.00,WUHU21623XXSP,2013-02-26 15:45:00,
2013-02-26 10:50:00,31.8,27.3,29.58,SSE,157,0.0,1.8,83,0.00,,,0.00,WUHU21623XXSP,2013-02-26 15:50:00,
2013-02-26 10:55:00,31.8,27.3,29.57,SSE,157,0.0,1.8,83,0.00,,,0.00,WUHU21623XXSP,2013-02-26 15:55:00,
2013-02-26 11:00:00,31.8,27.2,29.57,SSE,157,0.0,0.0,83,0.00,,,0.00,WUHU21623XXSP,2013-02-26 16:00:00,
2013-02-26 11:05:00,31.5,26.9,29.57,SSE,157,0.0,0.0,83,0.00,,,0.00,WUHU21623XXSP,2013-02-26 16:05:00,
2013-02-26 11:10:00,31.2,26.6,29.58,SSE,157,0.0,0.0,83,0.00,,,0.00,WUHU21623XXSP,2013-02-26 16:10:00,
2013-02-26 11:15:00,30.9,26.6,29.57,ESE,112,2.7,2.7,84,0.00,,,0.00,WUHU21623XXSP,2013-02-26 16:15:00,
2013-02-26 11:20:00,30.6,26.3,29.56,ESE,112,2.7,2.7,84,0.00,,,0.00,WUHU21623XXSP,2013-02-26 16:20:00,
2013-02-26 11:25:00,30.3,26.0,29.56,SE,135,3.4,3.4,84,0.00,,,0.00,WUHU21623XXSP,2013-02-26 16:25:00,
2013-02-26 11:30:00,30.0,25.7,29.55,ENE,67,4.0,4.0,84,0.00,,,0.00,WUHU21623XXSP,2013-02-26 16:30:00,
2013-02-26 11:35:00,29.7,25.4,29.56,SSE,157,5.1,7.2,84,0.00,,,0.00,WUHU21623XXSP,2013-02-26 16:35:00,
2013-02-26 11:40:00,29.4,25.1,29.56,ESE,111,6.2,7.2,84,0.00,,,0.00,WUHU21623XXSP,2013-02-26 16:40:00,
2013-02-26 11:45:00,29.1,24.8,29.56,ENE,67,6.4,7.2,84,0.00,,,0.00,WUHU21623XXSP,2013-02-26 16:45:00,
2013-02-26 11:50:00,28.8,24.6,29.56,East,93,6.5,7.4,84,0.00,,,0.00,WUHU21623XXSP,2013-02-26 16:50:00,
2013-02-26 11:55:00,28.4,24.4,29.56,East,90,7.4,7.4,85,0.00,,,0.00,WUHU21623XXSP,2013-02-26 16:55:00,
2013-02-26 12:00:00,28.3,24.3,29.57,East,90,6.0,7.4,85,0.00,,,0.00,WUHU21623XXSP,2013-02-26 17:00:00,
2013-02-26 12:05:00,28.0,24.1,29.57,ESE,112,7.2,12.8,85,0.00,,,0.00,WUHU21623XXSP,2013-02-26 17:05:00,
2013-02-26 12:10:00,27.8,23.8,29.56,SE,135,4.6,12.8,85,0.00,,,0.00,WUHU21623XXSP,2013-02-26 17:10:00,
2013-02-26 12:15:00,27.3,23.4,29.56,ENE,67,0.4,7.2,85,0.00,,,0.00,WUHU21623XXSP,2013-02-26 17:15:00,
2013-02-26 12:20:00,27.3,23.3,29.56,East,90,6.3,6.7,85,0.00,,,0.00,WUHU21623XXSP,2013-02-26 17:20:00,
2013-02-26 12:25:00,27.1,23.4,29.56,East,90,6.3,6.7,86,0.00,,,0.00,WUHU21623XXSP,2013-02-26 17:25:00,
2013-02-26 12:30:00,26.8,23.2,29.56,ESE,112,4.5,6.3,86,0.00,,,0.00,WUHU21623XXSP,2013-02-26 17:30:00,
2013-02-26 12:35:00,26.6,23.0,29.55,ENE,67,8.1,8.1,86,0.00,,,0.00,WUHU21623XXSP,2013-02-26 17:35:00,
2013-02-26 12:40:00,26.4,22.8,29.55,ENE,67,3.6,8.1,86,0.00,,,0.00,WUHU21623XXSP,2013-02-26 17:40:00,
2013-02-26 12:45:00,26.2,22.6,29.55,ENE,67,3.6,8.1,86,0.00,,,0.00,WUHU21623XXSP,2013-02-26 17:45:00,
2013-02-26 12:50:00,26.0,22.4,29.54,East,90,2.4,3.6,86,0.00,,,0.00,WUHU21623XXSP,2013-02-26 17:50:00,
2013-02-26 12:55:00,25.9,22.2,29.53,East,90,2.0,3.6,86,0.00,,,0.00,WUHU21623XXSP,2013-02-26 17:55:00,
2013-02-26 13:00:00,25.7,22.1,29.53,ENE,67,2.2,2.2,86,0.00,,,0.00,WUHU21623XXSP,2013-02-26 18:00:00,
2013-02-26 13:05:00,25.6,21.9,29.53,ENE,67,2.2,2.2,86,0.00,,,0.00,WUHU21623XXSP,2013-02-26 18:05:00,
2013-02-26 13:10:00,25.4,21.8,29.53,ENE,67,2.2,2.2,86,0.00,,,0.00,WUHU21623XXSP,2013-02-26 18:10:00,
2013-02-26 13:15:00,25.3,21.7,29.52,ENE,67,2.2,2.2,86,0.00,,,0.00,WUHU21623XXSP,2013-02-26 18:15:00,
2013-02-26 13:20:00,25.4,21.8,29.52,ENE,67,5.4,5.4,86,0.00,,,0.00,WUHU21623XXSP,2013-02-26 18:20:00,
2013-02-26 13:25:00,25.1,21.5,29.51,ENE,67,8.1,8.1,86,0.00,,,0.00,WUHU21623XXSP,2013-02-26 18:25:00,
2013-02-26 13:30:00,25.4,21.8,29.51,ENE,67,7.8,8.1,86,0.00,,,0.00,WUHU21623XXSP,2013-02-26 18:30:00,
2013-02-26 13:35:00,25.4,21.7,29.51,ESE,112,6.5,8.1,86,0.00,,,0.00,WUHU21623XXSP,2013-02-26 18:35:00,
2013-02-26 13:40:00,25.3,21.7,29.51,East,90,4.9,7.8,86,0.00,,,0.00,WUHU21623XXSP,2013-02-26 18:40:00,
2013-02-26 13:45:00,25.3,21.6,29.51,East,90,4.9,6.5,86,0.00,,,0.00,WUHU21623XXSP,2013-02-26 18:45:00,
2013-02-26 13:50:00,25.2,21.9,29.50,SE,135,5.6,5.6,87,0.00,,,0.00,WUHU21623XXSP,2013-02-26 18:50:00,
2013-02-26 13:55:00,25.2,21.8,29.50,ESE,111,5.2,5.6,87,0.00,,,0.00,WUHU21623XXSP,2013-02-26 18:55:00,
2013-02-26 14:00:00,25.2,21.8,29.49,ENE,67,6.7,6.7,87,0.00,,,0.00,WUHU21623XXSP,2013-02-26 19:00:00,
2013-02-26 14:05:00,25.4,22.0,29.49,East,90,3.1,6.7,87,0.00,,,0.00,WUHU21623XXSP,2013-02-26 19:05:00,
2013-02-26 14:10:00,25.4,22.1,29.49,East,90,2.7,6.7,87,0.00,,,0.00,WUHU21623XXSP,2013-02-26 19:10:00,
2013-02-26 14:15:00,25.5,22.1,29.48,East,90,2.7,3.1,87,0.00,,,0.00,WUHU21623XXSP,2013-02-26 19:15:00,
2013-02-26 14:20:00,25.5,22.1,29.48,SE,135,3.4,5.8,87,0.00,,,0.00,WUHU21623XXSP,2013-02-26 19:20:00,
2013-02-26 14:25:00,25.7,22.3,29.48,East,90,6.3,6.3,87,0.00,,,0.00,WUHU21623XXSP,2013-02-26 19:25:00,
2013-02-26 14:30:00,25.7,22.4,29.48,East,90,0.9,6.3,87,0.00,,,0.00,WUHU21623XXSP,2013-02-26 19:30:00,
2013-02-26 14:35:00,25.8,22.5,29.47,East,90,1.3,6.3,87,0.00,,,0.00,WUHU21623XXSP,2013-02-26 19:35:00,
2013-02-26 14:40:00,25.9,22.6,29.47,East,90,6.7,6.7,87,0.00,,,0.00,WUHU21623XXSP,2013-02-26 19:40:00,
2013-02-26 14:45:00,26.0,22.7,29.47,ENE,67,9.6,9.6,87,0.00,,,0.00,WUHU21623XXSP,2013-02-26 19:45:00,
2013-02-26 14:50:00,26.2,22.8,29.47,ENE,67,6.3,9.6,87,0.00,,,0.00,WUHU21623XXSP,2013-02-26 19:50:00,
2013-02-26 14:55:00,26.3,22.9,29.47,ENE,67,5.4,9.6,87,0.00,,,0.00,WUHU21623XXSP,2013-02-26 19:55:00,
2013-02-26 15:00:00,26.4,23.0,29.47,ENE,67,6.0,6.3,87,0.00,,,0.00,WUHU21623XXSP,2013-02-26 20:00:00,
2013-02-26 15:05:00,26.6,23.5,29.47,ESE,112,0.0,6.0,88,0.00,,,0.00,WUHU21623XXSP,2013-02-26 20:05:00,
2013-02-26 15:10:00,27.0,23.9,29.47,ESE,112,0.0,6.0,88,0.00,,,0.00,WUHU21623XXSP,2013-02-26 20:10:00,
2013-02-26 15:15:00,27.2,24.0,29.47,ESE,112,0.0,0.0,88,0.00,,,0.00,WUHU21623XXSP,2013-02-26 20:15:00,
2013-02-26 15:20:00,27.4,24.2,29.47,ENE,67,2.5,2.5,88,0.00,,,0.00,WUHU21623XXSP,2013-02-26 20:20:00,
2013-02-26 15:25:00,27.6,24.4,29.47,ENE,67,2.5,2.5,88,0.00,,,0.00,WUHU21623XXSP,2013-02-26 20:25:00,
2013-02-26 15:30:00,27.8,24.6,29.46,ENE,67,2.5,2.5,88,0.00,,,0.00,WUHU21623XXSP,2013-02-26 20:30:00,
2013-02-26 15:35:00,28.2,25.1,29.46,East,90,11.9,11.9,88,0.00,,,0.00,WUHU21623XXSP,2013-02-26 20:35:00,
2013-02-26 15:40:00,28.4,25.3,29.46,East,90,11.9,11.9,88,0.00,,,0.00,WUHU21623XXSP,2013-02-26 20:40:00,
2013-02-26 15:45:00,28.7,25.5,29.46,ENE,72,3.7,11.9,88,0.00,,,0.00,WUHU21623XXSP,2013-02-26 20:45:00,
2013-02-26 15:50:00,29.3,26.2,29.46,NE,45,1.8,11.9,88,0.00,,,0.00,WUHU21623XXSP,2013-02-26 20:50:00,
2013-02-26 15:55:00,29.4,26.2,29.46,ENE,67,3.6,3.6,88,0.00,,,0.00,WUHU21623XXSP,2013-02-26 20:55:00,
2013-02-26 16:00:00,29.6,26.5,29.46,East,89,1.9,7.2,88,0.00,,,0.00,WUHU21623XXSP,2013-02-26 21:00:00,
2013-02-26 16:05:00,29.9,26.7,29.47,SE,135,2.0,7.2,88,0.00,,,0.00,WUHU21623XXSP,2013-02-26 21:05:00,
2013-02-26 16:10:00,30.2,27.0,29.46,NE,45,5.6,5.6,88,0.00,,,0.00,WUHU21623XXSP,2013-02-26 21:10:00,
2013-02-26 16:15:00,30.4,27.3,29.46,ENE,58,3.6,5.6,88,0.00,,,0.00,WUHU21623XXSP,2013-02-26 21:15:00,
2013-02-26 16:20:00,30.7,27.5,29.46,ENE,67,0.9,5.6,88,0.00,,,0.00,WUHU21623XXSP,2013-02-26 21:20:00,
2013-02-26 16:25:00,31.0,27.8,29.46,ENE,67,0.9,2.9,88,0.00,,,0.00,WUHU21623XXSP,2013-02-26 21:25:00,
2013-02-26 16:30:00,31.3,28.1,29.46,ENE,67,0.9,0.9,88,0.00,,,0.00,WUHU21623XXSP,2013-02-26 21:30:00,
2013-02-26 16:35:00,31.6,28.4,29.46,ENE,67,0.9,0.9,88,0.00,,,0.00,WUHU21623XXSP,2013-02-26 21:35:00,
2013-02-26 16:40:00,31.9,28.7,29.46,ENE,67,0.9,0.9,88,0.00,,,0.00,WUHU21623XXSP,2013-02-26 21:40:00,
2013-02-26 16:45:00,32.4,29.2,29.46,ENE,67,0.9,0.9,88,0.00,,,0.00,WUHU21623XXSP,2013-02-26 21:45:00,
2013-02-26 16:50:00,32.7,29.5,29.46,East,90,0.0,0.9,88,0.00,,,0.00,WUHU21623XXSP,2013-02-26 21:50:00,
2013-02-26 16:55:00,33.1,29.9,29.46,East,90,0.0,0.9,88,0.00,,,0.00,WUHU21623XXSP,2013-02-26 21:55:00,
2013-02-26 17:00:00,33.4,30.2,29.46,ENE,67,1.3,1.3,88,0.00,,,0.00,WUHU21623XXSP,2013-02-26 22:00:00,
2013-02-26 17:05:00,33.4,30.2,29.46,ENE,67,0.0,1.3,88,0.00,,,0.00,WUHU21623XXSP,2013-02-26 22:05:00,
2013-02-26 17:10:00,33.3,30.0,29.46,ENE,67,0.0,1.3,88,0.00,,,0.00,WUHU21623XXSP,2013-02-26 22:10:00,
2013-02-26 17:15:00,33.3,30.0,29.46,East,90,0.0,0.0,88,0.00,,,0.00,WUHU21623XXSP,2013-02-26 22:15:00,
2013-02-26 17:20:00,33.4,30.2,29.46,SE,135,0.0,1.6,88,0.00,,,0.00,WUHU21623XXSP,2013-02-26 22:20:00,
2013-02-26 17:25:00,33.4,30.2,29.46,SE,135,0.0,1.6,88,0.00,,,0.00,WUHU21623XXSP,2013-02-26 22:25:00,
2013-02-26 17:30:00,33.4,30.2,29.47,ESE,112,0.0,0.0,88,0.00,,,0.00,WUHU21623XXSP,2013-02-26 22:30:00,
2013-02-26 17:35:00,33.4,30.2,29.47,ENE,67,4.3,4.3,88,0.00,,,0.00,WUHU21623XXSP,2013-02-26 22:35:00,
2013-02-26 17:40:00,33.4,30.2,29.47,ENE,67,4.3,4.3,88,0.00,,,0.00,WUHU21623XXSP,2013-02-26 22:40:00,
2013-02-26 17:45:00,33.4,30.2,29.47,ENE,67,4.3,4.3,88,0.00,,,0.00,WUHU21623XXSP,2013-02-26 22:45:00,
2013-02-26 17:50:00,33.3,30.0,29.47,East,90,1.8,4.3,88,0.00,,,0.00,WUHU21623XXSP,2013-02-26 22:50:00,
2013-02-26 17:55:00,33.3,30.0,29.47,East,90,1.8,4.3,88,0.00,,,0.00,WUHU21623XXSP,2013-02-26 22:55:00,
2013-02-26 18:00:00,33.3,30.0,29.47,East,90,1.8,1.8,88,0.00,,,0.00,WUHU21623XXSP,2013-02-26 23:00:00,
2013-02-26 18:05:00,33.3,30.0,29.47,NE,45,0.0,1.8,88,0.00,,,0.00,WUHU21623XXSP,2013-02-26 23:05:00,
2013-02-26 18:10:00,33.3,30.0,29.48,NE,45,0.0,1.8,88,0.00,,,0.00,WUHU21623XXSP,2013-02-26 23:10:00,
2013-02-26 18:15:00,33.3,30.0,29.48,SSE,157,0.7,0.7,88,0.00,,,0.00,WUHU21623XXSP,2013-02-26 23:15:00,
2013-02-26 18:20:00,33.3,30.0,29.48,ENE,67,0.0,0.7,88,0.00,,,0.00,WUHU21623XXSP,2013-02-26 23:20:00,
2013-02-26 18:25:00,33.1,29.9,29.48,East,90,1.3,1.3,88,0.00,,,0.00,WUHU21623XXSP,2013-02-26 23:25:00,
2013-02-26 18:30:00,33.1,29.9,29.47,East,90,1.3,1.3,88,0.00,,,0.00,WUHU21623XXSP,2013-02-26 23:30:00,
2013-02-26 18:35:00,33.1,29.9,29.47,ESE,112,1.6,1.6,88,0.00,,,0.00,WUHU21623XXSP,2013-02-26 23:35:00,
2013-02-26 18:40:00,33.1,29.9,29.47,ESE,112,1.6,1.6,88,0.00,,,0.00,WUHU21623XXSP,2013-02-26 23:40:00,
2013-02-26 18:45:00,33.1,29.9,29.47,East,90,0.0,1.6,88,0.00,,,0.00,WUHU21623XXSP,2013-02-26 23:45:00,
2013-02-26 18:50:00,33.1,29.9,29.47,ENE,67,0.0,0.0,88,0.00,,,0.00,WUHU21623XXSP,2013-02-26 23:50:00,
2013-02-26 18:55:00,33.3,30.0,29.47,ENE,67,0.0,0.0,88,0.00,,,0.00,WUHU21623XXSP,2013-02-26 23:55:00,
2013-02-26 19:00:00,33.3,30.0,29.47,ENE,67,0.0,0.0,88,0.00,,,0.00,WUHU21623XXSP,2013-02-27 00:00:00,
2013-02-26 19:05:00,33.3,30.0,29.47,East,90,1.8,1.8,88,0.00,,,0.00,WUHU21623XXSP,2013-02-27 00:05:00,
2013-02-26 19:10:00,33.3,30.0,29.48,East,90,1.8,1.8,88,0.00,,,0.00,WUHU21623XXSP,2013-02-27 00:10:00,
2013-02-26 19:15:00,33.3,30.0,29.48,East,90,1.8,1.8,88,0.00,,,0.00,WUHU21623XXSP,2013-02-27 00:15:00,
2013-02-26 19:20:00,33.3,30.0,29.48,East,90,1.8,1.8,88,0.00,,,0.00,WUHU21623XXSP,2013-02-27 00:20:00,
2013-02-26 19:25:00,33.3,30.0,29.48,ENE,67,0.0,1.8,88,0.00,,,0.00,WUHU21623XXSP,2013-02-27 00:25:00,
2013-02-26 19:30:00,33.3,30.0,29.48,ENE,67,0.0,0.0,88,0.00,,,0.00,WUHU21623XXSP,2013-02-27 00:30:00,
2013-02-26 19:35:00,33.3,30.0,29.48,ENE,67,0.0,0.0,88,0.00,,,0.00,WUHU21623XXSP,2013-02-27 00:35:00,
2013-02-26 19:40:00,33.3,30.0,29.48,ENE,67,0.0,0.0,88,0.00,,,0.00,WUHU21623XXSP,2013-02-27 00:40:00,
2013-02-26 19:45:00,33.3,30.0,29.48,ENE,67,0.0,0.0,88,0.00,,,0.00,WUHU21623XXSP,2013-02-27 00:45:00,
2013-02-26 19:50:00,33.3,30.0,29.48,SE,135,0.0,0.0,88,0.00,,,0.00,WUHU21623XXSP,2013-02-27 00:50:00,
2013-02-26 19:55:00,33.3,30.0,29.48,SE,135,0.0,0.0,88,0.00,,,0.00,WUHU21623XXSP,2013-02-27 00:55:00,
2013-02-26 20:00:00,33.4,30.2,29.48,SE,135,0.0,0.0,88,0.00,,,0.00,WUHU21623XXSP,2013-02-27 01:00:00,
2013-02-26 20:05:00,33.4,30.2,29.48,SE,135,0.0,0.0,88,0.00,,,0.00,WUHU21623XXSP,2013-02-27 01:05:00,
2013-02-26 20:10:00,33.4,30.2,29.48,ESE,112,0.0,0.0,88,0.00,,,0.00,WUHU21623XXSP,2013-02-27 01:10:00,
2013-02-26 20:15:00,33.4,30.2,29.48,ESE,112,0.0,0.0,88,0.00,,,0.00,WUHU21623XXSP,2013-02-27 01:15:00,
2013-02-26 20:20:00,33.4,30.2,29.48,ESE,112,0.0,0.0,88,0.00,,,0.00,WUHU21623XXSP,2013-02-27 01:20:00,
2013-02-26 20:25:00,33.4,30.2,29.48,ESE,112,0.0,0.0,88,0.00,,,0.00,WUHU21623XXSP,2013-02-27 01:25:00,
2013-02-26 20:30:00,33.4,30.2,29.48,ESE,112,0.0,0.0,88,0.00,,,0.00,WUHU21623XXSP,2013-02-27 01:30:00,
2013-02-26 20:35:00,33.4,30.2,29.47,ESE,112,0.0,0.0,88,0.00,,,0.00,WUHU21623XXSP,2013-02-27 01:35:00,
2013-02-26 20:40:00,33.4,30.2,29.47,ESE,112,0.0,0.0,88,0.00,,,0.00,WUHU21623XXSP,2013-02-27 01:40:00,
2013-02-26 20:45:00,33.4,30.2,29.47,ESE,112,0.0,0.0,88,0.00,,,0.00,WUHU21623XXSP,2013-02-27 01:45:00,
2013-02-26 20:50:00,33.4,30.2,29.47,ESE,112,0.0,0.0,88,0.00,,,0.00,WUHU21623XXSP,2013-02-27 01:50:00,
2013-02-26 20:55:00,33.4,30.2,29.47,ESE,112,0.0,0.0,88,0.00,,,0.00,WUHU21623XXSP,2013-02-27 01:55:00,
2013-02-26 21:00:00,33.4,30.2,29.47,ESE,112,0.0,0.0,88,0.00,,,0.00,WUHU21623XXSP,2013-02-27 02:00:00,
2013-02-26 21:05:00,33.4,30.2,29.47,ESE,112,0.0,0.0,88,0.00,,,0.00,WUHU21623XXSP,2013-02-27 02:05:00,
2013-02-26 21:10:00,33.4,30.2,29.48,ESE,112,0.0,0.0,88,0.00,,,0.00,WUHU21623XXSP,2013-02-27 02:10:00,
2013-02-26 21:15:00,33.4,30.2,29.48,ESE,112,0.0,0.0,88,0.00,,,0.00,WUHU21623XXSP,2013-02-27 02:15:00,
2013-02-26 21:20:00,33.4,30.2,29.48,ESE,112,0.0,0.0,88,0.00,,,0.00,WUHU21623XXSP,2013-02-27 02:20:00,
2013-02-26 21:25:00,33.4,30.2,29.48,ESE,112,0.0,0.0,88,0.00,,,0.00,WUHU21623XXSP,2013-02-27 02:25:00,
2013-02-26 21:30:00,33.3,30.0,29.48,ESE,112,0.0,0.0,88,0.00,,,0.00,WUHU21623XXSP,2013-02-27 02:30:00,
2013-02-26 21:35:00,33.3,30.0,29.48,ESE,112,0.0,0.0,88,0.00,,,0.00,WUHU21623XXSP,2013-02-27 02:35:00,
2013-02-26 21:40:00,33.4,30.2,29.48,ESE,112,0.0,0.0,88,0.00,,,0.00,WUHU21623XXSP,2013-02-27 02:40:00,
2013-02-26 21:45:00,33.4,30.2,29.48,ESE,112,0.0,0.0,88,0.00,,,0.00,WUHU21623XXSP,2013-02-27 02:45:00,
2013-02-26 21:50:00,33.4,30.2,29.48,ESE,112,0.0,0.0,88,0.00,,,0.00,WUHU21623XXSP,2013-02-27 02:50:00,
2013-02-26 21:55:00,33.4,30.2,29.48,ESE,112,0.0,0.0,88,0.00,,,0.00,WUHU21623XXSP,2013-02-27 02:55:00,
2013-02-26 22:00:00,33.3,30.0,29.48,ESE,112,0.0,0.0,88,0.00,,,0.00,WUHU21623XXSP,2013-02-27 03:00:00,
2013-02-26 22:05:00,33.3,30.0,29.48,ESE,112,0.0,0.0,88,0.00,,,0.00,WUHU21623XXSP,2013-02-27 03:05:00,
2013-02-26 22:10:00,33.3,30.0,29.48,ESE,112,0.0,0.0,88,0.00,,,0.00,WUHU21623XXSP,2013-02-27 03:10:00,
2013-02-26 22:15:00,33.3,30.0,29.47,ESE,112,0.0,0.0,88,0.00,,,0.00,WUHU21623XXSP,2013-02-27 03:15:00,
2013-02-26 22:20:00,33.3,-1.8,29.48,ESE,112,0.0,0.0,22,0.00,,,0.00,WUHU21623XXSP,2013-02-27 03:20:00,
2013-02-26 22:25:00,33.3,30.0,29.48,ESE,112,0.0,0.0,88,0.00,,,0.00,WUHU21623XXSP,2013-02-27 03:25:00,
2013-02-26 22:30:00,33.3,30.0,29.48,ESE,112,0.0,0.0,88,0.00,,,0.00,WUHU21623XXSP,2013-02-27 03:30:00,
2013-02-26 22:35:00,33.3,30.0,29.48,ESE,112,0.0,0.0,88,0.00,,,0.00,WUHU21623XXSP,2013-02-27 03:35:00,
2013-02-26 22:40:00,33.3,30.0,29.48,ESE,112,0.0,0.0,88,0.00,,,0.00,WUHU21623XXSP,2013-02-27 03:40:00,
2013-02-26 22:45:00,33.3,30.0,29.48,ESE,112,0.0,0.0,88,0.00,,,0.00,WUHU21623XXSP,2013-02-27 03:45:00,
2013-02-26 22:50:00,33.1,29.9,29.47,ESE,112,0.0,0.0,88,0.00,,,0.00,WUHU21623XXSP,2013-02-27 03:50:00,
2013-02-26 22:55:00,33.1,29.9,29.47,ESE,112,0.0,0.0,88,0.00,,,0.00,WUHU21623XXSP,2013-02-27 03:55:00,
2013-02-26 23:00:00,33.1,29.9,29.47,ESE,112,0.0,0.0,88,0.00,,,0.00,WUHU21623XXSP,2013-02-27 04:00:00,
2013-02-26 23:05:00,33.1,29.9,29.47,ESE,112,0.0,0.0,88,0.00,,,0.00,WUHU21623XXSP,2013-02-27 04:05:00,
2013-02-26 23:10:00,33.1,29.9,29.47,ESE,112,0.0,0.0,88,0.00,,,0.00,WUHU21623XXSP,2013-02-27 04:10:00,
2013-02-26 23:15:00,33.1,29.9,29.48,ESE,112,0.0,0.0,88,0.00,,,0.00,WUHU21623XXSP,2013-02-27 04:15:00,
2013-02-26 23:20:00,33.1,29.9,29.48,ESE,112,0.0,0.0,88,0.00,,,0.00,WUHU21623XXSP,2013-02-27 04:20:00,
2013-02-26 23:25:00,33.1,29.9,29.47,ESE,112,0.0,0.0,88,0.00,,,0.00,WUHU21623XXSP,2013-02-27 04:25:00,
2013-02-26 23:30:00,33.1,29.9,29.47,ESE,112,0.0,0.0,88,0.00,,,0.00,WUHU21623XXSP,2013-02-27 04:30:00,
2013-02-26 23:35:00,33.1,29.9,29.47,ESE,112,0.0,0.0,88,0.00,,,0.00,WUHU21623XXSP,2013-02-27 04:35:00,
2013-02-26 23:40:00,33.1,29.9,29.47,ESE,112,0.0,0.0,88,0.00,,,0.00,WUHU21623XXSP,2013-02-27 04:40:00,
2013-02-26 23:45:00,33.1,29.9,29.48,ESE,112,0.0,0.0,88,0.00,,,0.00,WUHU21623XXSP,2013-02-27 04:45:00,
2013-02-26 23:50:00,33.1,29.9,29.47,ESE,112,0.0,0.0,88,0.00,,,0.00,WUHU21623XXSP,2013-02-27 04:50:00,
2013-02-26 23:55:00,33.1,29.9,29.47,ESE,112,0.0,0.0,88,0.00,,,0.00,WUHU21623XXSP,2013-02-27 04:55:00,